Rochester, MN

7:19 PM CDT on June 21, 2018 (GMT -0500)
Rochester International

Weather History for KRST - December, 2017

Change the Weather History Date:

Thursday, December 7, 2017

  Actual Average Record
Temperature  
Mean Temperature 12 °F 22 °F  
Max Temperature 17 °F 30 °F 56 °F (1939)
Min Temperature 7 °F 15 °F -28 °F (1972)
Degree Days  
Heating Degree Days 53 43  
Month to date heating degree days 243 289  
Since 1 July heating degree days 1821 1961  
Cooling Degree Days 0 0  
Month to date cooling degree days 0 0  
Year to date cooling degree days 494 585  
Moisture  
Dew Point 7 °F    
Average Humidity 75    
Maximum Humidity 88    
Minimum Humidity 61    
Precipitation  
Precipitation 0.00 in 0.05 in 0.89 in (1947)
Month to date precipitation 0.07 0.34  
Year to date precipitation 32.25 32.13  
Snow  
Snow 0.00 in 0.50 in 7.70 in (1947)
Month to date snowfall 0.5 2.9  
Since 1 July snowfall 3.8 9.8  
Snow Depth T in    
Sea Level Pressure  
Sea Level Pressure 30.21 in    
Wind  
Wind Speed 15 mph (West)    
Max Wind Speed 21 mph    
Max Gust Speed 24 mph    
Visibility 10 miles    
Events      
T = Trace of Precipitation, MM = Missing Value Source: NWS Daily Summary

Daily Weather History Graph

Daily Weather History Graph

Search for Another Location

Airport or City:

Astronomy

Dec. 07, 2017 Rise Set
Actual Time 7:30 AM CST 4:32 PM CST
Civil Twilight 6:58 AM CST 5:04 PM CST
Nautical Twilight 6:22 AM CST 5:41 PM CST
Astronomical Twilight 5:47 AM CST 6:16 PM CST
Moon 9:23 PM CST (12/7) 11:07 AM CST (12/7)
Length of Visible Light 10h 06m
Length of Day
9h 01m
Waning Gibbous, 77% of the Moon is Illuminated
Dec 7
Waning Gibbous
Dec 10
Last Quarter
Dec 18
New
Dec 26
First Quarter
Jan 1
Full

Hourly Weather History & Observations

Time (CST) Temp. Windchill Dew Point Humidity Pressure Visibility Wind Dir Wind Speed Gust Speed Precip Events Conditions
12:54 AM 14.0 °F -0.8 °F 8.1 °F 77% 30.23 in 10.0 mi NW 13.8 mph - N/A   Scattered Clouds
1:54 AM 12.9 °F -2.8 °F 8.1 °F 81% 30.25 in 10.0 mi NW 15.0 mph - N/A   Clear
2:54 AM 12.9 °F -3.4 °F 7.0 °F 77% 30.27 in 10.0 mi NW 16.1 mph - N/A   Mostly Cloudy
3:54 AM 10.9 °F -4.7 °F 6.1 °F 81% 30.28 in 10.0 mi NW 13.8 mph - N/A   Clear
4:54 AM 10.9 °F -5.9 °F 5.0 °F 77% 30.28 in 10.0 mi NW 16.1 mph - N/A   Clear
5:54 AM 9.0 °F -9.0 °F 5.0 °F 84% 30.30 in 10.0 mi NW 17.3 mph - N/A   Clear
6:54 AM 8.1 °F -7.0 °F 3.9 °F 83% 30.32 in 10.0 mi NW 11.5 mph - N/A   Clear
7:54 AM 7.0 °F -8.3 °F 3.0 °F 84% 30.34 in 10.0 mi NW 11.5 mph - N/A   Clear
8:54 AM 8.1 °F -10.2 °F 3.0 °F 80% 30.34 in 10.0 mi NW 17.3 mph - N/A   Clear
9:54 AM 10.0 °F -6.5 °F 3.9 °F 76% 30.34 in 10.0 mi WNW 15.0 mph - N/A   Clear
10:54 AM 14.0 °F -0.2 °F 5.0 °F 67% 30.31 in 10.0 mi WNW 12.7 mph - N/A   Mostly Cloudy
11:54 AM 16.0 °F 1.1 °F 5.0 °F 62% 30.28 in 10.0 mi WNW 15.0 mph - N/A   Overcast
12:54 PM 17.1 °F 2.0 °F 6.1 °F 62% 30.25 in 10.0 mi West 16.1 mph - N/A   Clear
1:54 PM 17.1 °F 1.0 °F 6.1 °F 62% 30.23 in 10.0 mi West 18.4 mph - N/A   Clear
2:54 PM 17.1 °F 2.0 °F 7.0 °F 65% 30.20 in 10.0 mi WSW 16.1 mph - N/A   Clear
3:54 PM 16.0 °F 3.6 °F 6.1 °F 65% 30.19 in 10.0 mi West 10.4 mph - N/A   Clear
4:54 PM 12.9 °F -0.9 °F 6.1 °F 74% 30.19 in 10.0 mi WSW 11.5 mph - N/A   Clear
5:54 PM 12.9 °F -1.6 °F 7.0 °F 77% 30.17 in 10.0 mi SW 12.7 mph - N/A   Clear
6:54 PM 14.0 °F -1.4 °F 8.1 °F 77% 30.13 in 10.0 mi SW 15.0 mph - N/A   Clear
7:54 PM 15.1 °F -0.6 °F 10.0 °F 80% 30.11 in 10.0 mi WSW 16.1 mph - N/A   Partly Cloudy
8:54 PM 16.0 °F 1.1 °F 10.9 °F 81% 30.09 in 10.0 mi WSW 15.0 mph - N/A   Clear
9:54 PM 16.0 °F 1.1 °F 10.9 °F 81% 30.05 in 10.0 mi WSW 15.0 mph - N/A   Clear
10:54 PM 17.1 °F 2.5 °F 12.0 °F 81% 30.03 in 10.0 mi WSW 15.0 mph - N/A   Scattered Clouds
11:54 PM 17.1 °F 4.3 °F 12.0 °F 81% 30.01 in 10.0 mi WSW 11.5 mph - N/A   Scattered Clouds